EW5612 Weather Reports


Display with metric or nautical units.
time (UTC)temp
F
wind
direction
speed
MPH
gust
MPH
rain 1hr
in
rain 24hr
in
rain mn
in
humidity
%
barometer
mb
20260503060203 56 4 0.0 0.0 0.00 0.00 0.00 91 1021.2
20260503054703 56 4 0.0 0.0 0.00 0.00 0.00 91 1021.3
20260503054203 56 4 0.0 0.0 0.00 0.00 0.00 90 1021.3
20260503053704 56 4 0.0 0.0 0.00 0.00 0.00 90 1021.2
20260503053203 56 4 0.0 0.0 0.00 0.00 0.00 90 1021.2
20260503052203 57 4 0.0 0.0 0.00 0.00 0.00 90 1021.3
20260503051704 57 4 0.0 0.0 0.00 0.00 0.00 90 1021.3
20260503051204 57 4 0.0 0.0 0.00 0.00 0.00 90 1021.3
20260503050704 57 4 0.0 0.0 0.00 0.00 0.00 89 1021.2
20260503050203 57 4 0.0 0.0 0.00 0.00 0.00 89 1021.3
20260503045703 57 4 0.0 0.0 0.00 0.00 0.00 89 1021.3
20260503045204 57 4 0.0 0.0 0.00 0.00 0.00 89 1021.3
20260503044704 58 4 0.0 0.0 0.00 0.00 0.00 88 1021.4
20260503044204 58 4 0.0 0.0 0.00 0.00 0.00 88 1021.2
20260503043703 58 4 0.0 0.0 0.00 0.00 0.00 88 1021.2
20260503043204 58 4 0.0 0.0 0.00 0.00 0.00 88 1021.2
20260503042704 58 4 0.0 0.0 0.00 0.00 0.00 88 1021.0
20260503042203 58 4 0.0 0.0 0.00 0.00 0.00 88 1021.0
20260503041204 59 4 0.0 0.0 0.00 0.00 0.00 87 1021.1
20260503040703 59 4 0.0 0.0 0.00 0.00 0.00 87 1021.1
20260503040203 59 4 0.0 0.0 0.00 0.00 0.00 87 1021.1
20260503035704 59 4 0.0 0.0 0.00 0.00 0.00 87 1021.0
20260503035203 59 4 0.0 0.0 0.00 0.00 0.00 87 1021.0
20260503034703 60 4 0.0 0.0 0.00 0.00 0.00 86 1020.9
20260503034204 60 4 0.0 0.0 0.00 0.00 0.00 86 1020.8
20260503033704 60 4 0.0 0.0 0.00 0.00 0.00 86 1020.8
20260503033203 60 4 0.0 0.0 0.00 0.00 0.00 85 1020.8
20260503032704 60 4 0.0 0.0 0.00 0.00 0.00 85 1020.7
20260503032204 60 4 0.0 0.0 0.00 0.00 0.00 84 1020.6
20260503031704 60 4 0.0 0.0 0.00 0.00 0.00 84 1020.6
20260503031203 61 4 0.0 0.0 0.00 0.00 0.00 83 1020.6
20260503030704 61 4 0.0 0.0 0.00 0.00 0.00 83 1020.6
20260503030204 61 4 0.0 0.0 0.00 0.00 0.00 82 1020.6
20260503025704 61 4 0.0 0.0 0.00 0.00 0.00 82 1020.5
20260503025203 61 4 0.0 0.0 0.00 0.00 0.00 82 1020.5
20260503024703 62 4 0.0 0.0 0.00 0.00 0.00 82 1020.3
20260503023704 62 4 0.0 0.0 0.00 0.00 0.00 80 1020.1
20260503023204 62 4 0.0 0.0 0.00 0.00 0.00 79 1020.0
20260503022704 62 4 0.0 0.0 0.00 0.00 0.00 78 1019.9
20260503022204 63 4 0.0 0.0 0.00 0.00 0.00 77 1019.8
20260503021704 63 4 0.0 0.0 0.00 0.00 0.00 77 1019.8
20260503021204 64 4 0.0 0.0 0.00 0.00 0.00 75 1019.8
20260503020703 64 4 0.0 0.0 0.00 0.00 0.00 74 1019.8
20260503015704 65 4 0.0 0.0 0.00 0.00 0.00 72 1019.8
20260503014704 66 4 0.0 0.0 0.00 0.00 0.00 71 1019.8
20260503014203 66 4 0.0 0.0 0.00 0.00 0.00 69 1019.8
20260503013703 66 4 0.0 0.0 0.00 0.00 0.00 67 1019.8
20260503012704 68 4 0.0 0.0 0.00 0.00 0.00 65 1019.6
20260503012203 68 4 0.0 0.0 0.00 0.00 0.00 63 1019.6
20260503011204 69 4 0.0 0.0 0.00 0.00 0.00 62 1019.5
20260503010703 70 4 0.0 0.0 0.00 0.00 0.00 61 1019.5
20260503010203 70 4 0.0 0.0 0.00 0.00 0.00 59 1019.4
20260503005704 70 4 0.0 0.0 0.00 0.00 0.00 56 1019.4
20260503004703 71 4 0.0 0.0 0.00 0.00 0.00 53 1019.3
20260503003704 71 4 0.0 0.0 0.00 0.00 0.00 52 1019.3
20260503003204 72 4 0.0 3.0 0.00 0.00 0.00 50 1019.3
20260503002703 72 0 1.0 2.0 0.00 0.00 0.00 49 1019.3
20260503002204 72 31 0.0 1.0 0.00 0.00 0.00 48 1019.2
20260503001704 72 15 0.0 0.0 0.00 0.00 0.00 49 1019.3
20260503001203 72 324 0.0 0.0 0.00 0.00 0.00 48 1019.3
20260503000204 73 315 0.0 0.0 0.00 0.00 0.00 46 1019.2
20260502235704 73 324 0.0 0.0 0.00 0.00 0.00 47 1019.2
20260502235204 73 4 1.0 3.0 0.00 0.00 0.00 46 1019.1
20260502234704 73 6 0.0 5.0 0.00 0.00 0.00 47 1019.1
20260502233203 74 310 0.0 0.0 0.00 0.00 0.00 48 1019.0
20260502232703 74 312 1.0 5.0 0.00 0.00 0.00 47 1019.0
20260502231704 74 38 0.0 5.0 0.00 0.00 0.00 47 1019.0
20260502231204 74 141 0.0 1.0 0.00 0.00 0.00 46 1018.9
20260502230704 74 210 0.0 3.0 0.00 0.00 0.00 47 1018.9
20260502230203 74 0 2.0 3.0 0.00 0.00 0.00 45 1018.9
20260502225704 74 10 0.0 3.0 0.00 0.00 0.00 47 1018.8
20260502224703 74 16 2.0 5.0 0.00 0.00 0.00 47 1018.9
20260502224204 74 285 2.0 3.0 0.00 0.01 0.00 45 1018.9
20260502223704 74 24 1.0 3.0 0.00 0.01 0.00 43 1019.0
20260502223204 74 8 2.0 7.0 0.00 0.01 0.00 46 1018.9
20260502222204 74 340 2.0 3.0 0.00 0.02 0.00 45 1019.1
20260502221704 74 29 2.0 5.0 0.00 0.02 0.00 46 1019.2
20260502221204 74 308 1.0 5.0 0.00 0.03 0.00 48 1019.2
20260502220704 75 321 3.0 5.0 0.00 0.05 0.00 45 1019.2
20260502220203 75 25 1.0 3.0 0.00 0.07 0.00 47 1019.1
20260502215703 75 41 2.0 7.0 0.00 0.11 0.00 47 1019.2
20260502215204 75 233 1.0 3.0 0.00 0.14 0.00 49 1019.2
20260502214703 74 251 1.0 7.0 0.00 0.15 0.00 49 1019.3
20260502214204 74 39 2.0 3.0 0.00 0.15 0.00 49 1019.3
20260502213703 74 19 2.0 6.0 0.00 0.15 0.00 47 1019.4
20260502213203 74 297 2.0 8.0 0.00 0.15 0.00 48 1019.4
20260502212204 74 349 2.0 5.0 0.00 0.15 0.00 50 1019.6
20260502211703 74 283 2.0 7.0 0.00 0.15 0.00 49 1019.6
20260502211204 74 44 2.0 10.0 0.00 0.15 0.00 50 1019.8
20260502210704 74 8 2.0 6.0 0.00 0.15 0.00 50 1019.9
20260502210203 74 334 2.0 5.0 0.00 0.15 0.00 47 1019.9
20260502205703 74 349 2.0 6.0 0.00 0.15 0.00 52 1020.0
20260502205204 74 349 2.0 5.0 0.00 0.15 0.00 51 1020.1
20260502204704 74 260 2.0 5.0 0.00 0.15 0.00 51 1020.1
20260502204204 74 277 2.0 6.0 0.00 0.15 0.00 52 1020.2
20260502203703 74 34 3.0 5.0 0.00 0.15 0.00 52 1020.2
20260502203204 74 229 3.0 7.0 0.00 0.15 0.00 50 1020.3
20260502201203 73 68 2.0 3.0 0.00 0.16 0.00 52 1020.6
20260502200203 73 341 1.0 3.0 0.00 0.16 0.00 53 1020.6
20260502195703 73 46 1.0 8.0 0.00 0.17 0.00 54 1020.7
20260502195204 72 294 2.0 8.0 0.00 0.17 0.00 52 1020.6
20260502194704 72 21 2.0 6.0 0.00 0.18 0.00 56 1020.6
20260502194203 72 285 2.0 9.0 0.00 0.18 0.00 54 1020.6
20260502193203 72 333 2.0 3.0 0.00 0.18 0.00 55 1020.7
20260502192704 72 258 2.0 5.0 0.00 0.18 0.00 56 1020.7
20260502192204 72 253 2.0 7.0 0.00 0.18 0.00 56 1020.7
20260502191703 72 326 0.0 7.0 0.00 0.18 0.00 58 1020.8
20260502191204 71 39 2.0 3.0 0.00 0.18 0.00 57 1020.9
20260502190203 71 339 2.0 5.0 0.00 0.18 0.00 58 1021.0
20260502185704 71 346 2.0 5.0 0.00 0.18 0.00 56 1020.9
20260502185203 71 334 3.0 6.0 0.00 0.18 0.00 56 1021.0
20260502184204 71 291 2.0 8.0 0.00 0.22 0.00 57 1021.2
20260502183703 71 48 3.0 6.0 0.00 0.24 0.00 58 1021.3
20260502183203 70 291 2.0 6.0 0.00 0.25 0.00 60 1021.2
20260502182204 70 189 2.0 5.0 0.00 0.27 0.00 57 1021.4
20260502181704 70 258 2.0 6.0 0.00 0.28 0.00 58 1021.4
20260502180703 70 16 2.0 5.0 0.00 0.30 0.00 58 1021.7
20260502180203 70 328 2.0 5.0 0.00 0.31 0.00 57 1021.9
20260502170204 68 43 2.0 3.0 0.00 0.31 0.00 62 1022.5
20260502163704 66 349 3.0 8.0 0.00 0.31 0.00 65 1022.6
20260502163204 66 75 1.0 5.0 0.00 0.31 0.00 66 1022.5
20260502162704 66 310 2.0 7.0 0.00 0.31 0.00 65 1022.6
20260502162203 66 338 2.0 3.0 0.00 0.31 0.00 67 1022.6
20260502161204 65 321 2.0 5.0 0.00 0.34 0.00 68 1022.6
20260502160703 65 282 2.0 5.0 0.00 0.34 0.00 69 1022.6
20260502160203 64 327 2.0 7.0 0.00 0.35 0.00 69 1022.6
20260502152204 62 23 2.0 6.0 0.00 0.37 0.00 76 1022.5
20260502151703 62 16 2.0 5.0 0.00 0.37 0.00 75 1022.5
20260502151204 62 45 3.0 8.0 0.00 0.37 0.00 75 1022.5
20260502150704 61 320 2.0 3.0 0.00 0.37 0.00 78 1022.4
20260502150203 61 287 2.0 3.0 0.00 0.38 0.00 79 1022.4
20260502130703 52 316 0.0 3.0 0.00 0.48 0.00 95 1021.1
20260502130204 52 302 1.0 3.0 0.00 0.49 0.00 96 1021.0
20260502123703 51 319 1.0 3.0 0.00 0.56 0.00 95 1020.6
20260502123203 51 311 0.0 3.0 0.00 0.57 0.00 96 1020.5
20260502122704 50 286 0.0 2.0 0.00 0.58 0.00 95 1020.2
20260502122204 50 316 0.0 2.0 0.00 0.59 0.00 95 1020.2
20260502121203 50 303 0.0 2.0 0.00 0.60 0.00 95 1020.1
20260502120704 50 315 0.0 0.0 0.00 0.62 0.00 95 1020.1
20260502115704 50 315 0.0 2.0 0.00 0.64 0.00 95 1020.1
20260502115203 50 333 0.0 2.0 0.00 0.65 0.00 95 1020.0
20260502114703 50 333 0.0 2.0 0.00 0.67 0.00 95 1019.9
20260502114203 50 336 1.0 2.0 0.00 0.67 0.00 95 1019.8
20260502113703 50 338 0.0 2.0 0.00 0.67 0.00 95 1019.7
20260502113203 50 340 0.0 2.0 0.00 0.67 0.00 95 1019.8
20260502112704 50 340 1.0 2.0 0.00 0.67 0.00 95 1019.8
20260502112204 50 345 1.0 3.0 0.00 0.67 0.00 95 1019.6
20260502111703 50 314 0.0 2.0 0.00 0.67 0.00 95 1019.7
20260502111204 50 355 0.0 2.0 0.00 0.67 0.00 95 1019.7
20260502110203 50 341 0.0 1.0 0.00 0.67 0.00 95 1019.3
20260502105703 50 343 1.0 3.0 0.00 0.67 0.00 95 1019.4
20260502105204 51 343 0.0 3.0 0.00 0.67 0.00 95 1019.3
20260502104204 51 343 0.0 3.0 0.00 0.67 0.00 95 1019.3
20260502103704 51 320 1.0 2.0 0.00 0.67 0.00 95 1019.1
20260502102704 51 337 0.0 2.0 0.00 0.67 0.00 95 1018.9
20260502102204 51 336 1.0 5.0 0.00 0.67 0.00 95 1018.9
20260502101704 51 314 1.0 3.0 0.00 0.67 0.00 95 1018.8
20260502101204 51 285 0.0 3.0 0.00 0.68 0.00 95 1018.6
20260502100703 51 289 0.0 1.0 0.00 0.68 0.00 95 1018.4
20260502100203 51 286 0.0 3.0 0.00 0.69 0.00 95 1018.3
20260502091203 51 313 0.0 3.0 0.00 0.78 0.00 95 1017.9
20260502090204 51 301 1.0 3.0 0.00 0.78 0.00 95 1017.8
20260502071204 52 355 0.0 1.0 0.00 0.78 0.00 94 1017.3
20260502065204 52 7 0.0 1.0 0.00 0.78 0.00 93 1017.6
20260502064203 52 317 0.0 2.0 0.00 0.78 0.00 93 1017.6
20260502063704 52 293 0.0 3.0 0.00 0.78 0.00 93 1017.7
20260502062704 53 278 0.0 3.0 0.00 0.78 0.00 93 1017.6
20260502062204 53 262 0.0 2.0 0.00 0.78 0.00 93 1017.6